Year,Month,Day,Hour,Minute,Value (Times are PST for temperature in C)
2019,07,29,00,00,17.10
2019,07,29,00,01,17.10
2019,07,29,00,02,17.00
2019,07,29,00,03,17.00
2019,07,29,00,04,17.00
2019,07,29,00,05,17.00
2019,07,29,00,06,16.90
2019,07,29,00,07,16.90
2019,07,29,00,08,16.90
2019,07,29,00,09,16.90
2019,07,29,00,10,16.90
2019,07,29,00,11,16.90
2019,07,29,00,12,16.90
2019,07,29,00,13,16.90
2019,07,29,00,14,16.90
2019,07,29,00,15,16.90
2019,07,29,00,16,16.80
2019,07,29,00,17,16.80
2019,07,29,00,18,16.80
2019,07,29,00,19,16.80
2019,07,29,00,20,16.80
2019,07,29,00,21,16.80
2019,07,29,00,22,16.80
2019,07,29,00,23,16.80
2019,07,29,00,24,16.70
2019,07,29,00,25,16.70
2019,07,29,00,26,16.70
2019,07,29,00,27,16.70
2019,07,29,00,28,16.60
2019,07,29,00,29,16.60
2019,07,29,00,30,16.60
2019,07,29,00,31,16.60
2019,07,29,00,32,16.60
2019,07,29,00,33,16.50
2019,07,29,00,34,16.50
2019,07,29,00,35,16.40
2019,07,29,00,36,16.40
2019,07,29,00,37,16.40
2019,07,29,00,38,16.40
2019,07,29,00,39,16.40
2019,07,29,00,40,16.30
2019,07,29,00,41,16.30
2019,07,29,00,42,16.30
2019,07,29,00,43,16.30
2019,07,29,00,44,16.30
2019,07,29,00,45,16.30
2019,07,29,00,46,16.30
2019,07,29,00,47,16.30
2019,07,29,00,48,16.30
2019,07,29,00,49,16.30
2019,07,29,00,50,16.40
2019,07,29,00,51,16.40
2019,07,29,00,52,16.40
2019,07,29,00,53,16.40
2019,07,29,00,54,16.40
2019,07,29,00,55,16.40
2019,07,29,00,56,16.40
2019,07,29,00,57,16.40
2019,07,29,00,58,16.30
2019,07,29,00,59,16.30
2019,07,29,01,00,16.30
2019,07,29,01,01,16.30
2019,07,29,01,02,16.30
2019,07,29,01,03,16.30
2019,07,29,01,04,16.30
2019,07,29,01,05,16.30
2019,07,29,01,06,16.30
2019,07,29,01,07,16.30
2019,07,29,01,08,16.30
2019,07,29,01,09,16.30
2019,07,29,01,10,16.30
2019,07,29,01,11,16.30
2019,07,29,01,12,16.20
2019,07,29,01,13,16.20
2019,07,29,01,14,16.20
2019,07,29,01,15,16.10
2019,07,29,01,16,16.10
2019,07,29,01,17,16.10
2019,07,29,01,18,16.10
2019,07,29,01,19,16.10
2019,07,29,01,20,16.10
2019,07,29,01,21,16.10
2019,07,29,01,22,16.10
2019,07,29,01,23,16.10
2019,07,29,01,24,16.10
2019,07,29,01,25,16.10
2019,07,29,01,26,16.00
2019,07,29,01,27,16.00
2019,07,29,01,28,16.00
2019,07,29,01,29,16.00
2019,07,29,01,30,16.00
2019,07,29,01,31,15.90
2019,07,29,01,32,15.90
2019,07,29,01,33,15.90
2019,07,29,01,34,15.90
2019,07,29,01,35,15.80
2019,07,29,01,36,15.80
2019,07,29,01,37,15.80
2019,07,29,01,38,15.80
2019,07,29,01,39,15.80
2019,07,29,01,40,15.80
2019,07,29,01,41,15.80
2019,07,29,01,42,15.80
2019,07,29,01,43,15.70
2019,07,29,01,44,15.70
2019,07,29,01,45,15.70
2019,07,29,01,46,15.70
2019,07,29,01,47,15.70
2019,07,29,01,48,15.70
2019,07,29,01,49,15.70
2019,07,29,01,50,15.70
2019,07,29,01,51,15.70
2019,07,29,01,52,15.70
2019,07,29,01,53,15.70
2019,07,29,01,54,15.60
2019,07,29,01,55,15.60
2019,07,29,01,56,15.60
2019,07,29,01,57,15.60
2019,07,29,01,58,15.60
2019,07,29,01,59,15.60
2019,07,29,02,00,15.60
2019,07,29,02,01,15.60
2019,07,29,02,02,15.50
2019,07,29,02,03,15.50
2019,07,29,02,04,15.50
2019,07,29,02,05,15.50
2019,07,29,02,06,15.50
2019,07,29,02,07,15.40
2019,07,29,02,08,15.40
2019,07,29,02,09,15.40
2019,07,29,02,10,15.40
2019,07,29,02,11,15.40
2019,07,29,02,12,15.30
2019,07,29,02,13,15.30
2019,07,29,02,14,15.30
2019,07,29,02,15,15.30
2019,07,29,02,16,15.30
2019,07,29,02,17,15.30
2019,07,29,02,18,15.20
2019,07,29,02,19,15.20
2019,07,29,02,20,15.20
2019,07,29,02,21,15.20
2019,07,29,02,22,15.20
2019,07,29,02,23,15.10
2019,07,29,02,24,15.10
2019,07,29,02,25,15.10
2019,07,29,02,26,15.10
2019,07,29,02,27,15.10
2019,07,29,02,28,15.10
2019,07,29,02,29,15.00
2019,07,29,02,30,15.00
2019,07,29,02,31,15.00
2019,07,29,02,32,14.90
2019,07,29,02,33,14.90
2019,07,29,02,34,14.90
2019,07,29,02,35,14.90
2019,07,29,02,36,14.80
2019,07,29,02,37,14.80
2019,07,29,02,38,14.80
2019,07,29,02,39,14.80
2019,07,29,02,40,14.80
2019,07,29,02,41,14.80
2019,07,29,02,42,14.80
2019,07,29,02,43,14.70
2019,07,29,02,44,14.70
2019,07,29,02,45,14.70
2019,07,29,02,46,14.70
2019,07,29,02,47,14.70
2019,07,29,02,48,14.70
2019,07,29,02,49,14.70
2019,07,29,02,50,14.70
2019,07,29,02,51,14.60
2019,07,29,02,52,14.60
2019,07,29,02,53,14.60
2019,07,29,02,54,14.60
2019,07,29,02,55,14.60
2019,07,29,02,56,14.60
2019,07,29,02,57,14.60
2019,07,29,02,58,14.50
2019,07,29,02,59,14.50
2019,07,29,03,00,14.50
2019,07,29,03,01,14.50
2019,07,29,03,02,14.50
2019,07,29,03,03,14.50
2019,07,29,03,04,14.40
2019,07,29,03,05,14.40
2019,07,29,03,06,14.40
2019,07,29,03,07,14.40
2019,07,29,03,08,14.40
2019,07,29,03,09,14.40
2019,07,29,03,10,14.40
2019,07,29,03,11,14.30
2019,07,29,03,12,14.30
2019,07,29,03,13,14.30
2019,07,29,03,14,14.30
2019,07,29,03,15,14.30
2019,07,29,03,16,14.30
2019,07,29,03,17,14.30
2019,07,29,03,18,14.30
2019,07,29,03,19,14.20
2019,07,29,03,20,14.20
2019,07,29,03,21,14.20
2019,07,29,03,22,14.20
2019,07,29,03,23,14.20
2019,07,29,03,24,14.20
2019,07,29,03,25,14.20
2019,07,29,03,26,14.10
2019,07,29,03,27,14.10
2019,07,29,03,28,14.10
2019,07,29,03,29,14.10
2019,07,29,03,30,14.10
2019,07,29,03,31,14.10
2019,07,29,03,32,14.10
2019,07,29,03,33,14.10
2019,07,29,03,34,14.10
2019,07,29,03,35,14.10
2019,07,29,03,36,14.10
2019,07,29,03,37,14.00
2019,07,29,03,38,14.00
2019,07,29,03,39,14.00
2019,07,29,03,40,14.00
2019,07,29,03,41,14.00
2019,07,29,03,42,14.00
2019,07,29,03,43,14.00
2019,07,29,03,44,14.00
2019,07,29,03,45,14.00
2019,07,29,03,46,14.00
2019,07,29,03,47,14.00
2019,07,29,03,48,14.00
2019,07,29,03,49,14.00
2019,07,29,03,50,14.00
2019,07,29,03,51,14.00
2019,07,29,03,52,13.90
2019,07,29,03,53,13.90
2019,07,29,03,54,13.90
2019,07,29,03,55,13.90
2019,07,29,03,56,13.90
2019,07,29,03,57,13.90
2019,07,29,03,58,13.80
2019,07,29,03,59,13.80
2019,07,29,04,00,13.80
2019,07,29,04,01,13.80
2019,07,29,04,02,13.80
2019,07,29,04,03,13.80
2019,07,29,04,04,13.70
2019,07,29,04,05,13.70
2019,07,29,04,06,13.70
2019,07,29,04,07,13.70
2019,07,29,04,08,13.70
2019,07,29,04,09,13.70
2019,07,29,04,10,13.70
2019,07,29,04,11,13.60
2019,07,29,04,12,13.60
2019,07,29,04,13,13.60
2019,07,29,04,14,13.60
2019,07,29,04,15,13.50
2019,07,29,04,16,13.50
2019,07,29,04,17,13.50
2019,07,29,04,18,13.50
2019,07,29,04,19,13.50
2019,07,29,04,20,13.50
2019,07,29,04,21,13.50
2019,07,29,04,22,13.50
2019,07,29,04,23,13.60
2019,07,29,04,24,13.50
2019,07,29,04,25,13.50
2019,07,29,04,26,13.50
2019,07,29,04,27,13.50
2019,07,29,04,28,13.40
2019,07,29,04,29,13.40
2019,07,29,04,30,13.40
2019,07,29,04,31,13.40
2019,07,29,04,32,13.40
2019,07,29,04,33,13.40
2019,07,29,04,34,13.40
2019,07,29,04,35,13.50
2019,07,29,04,36,13.50
2019,07,29,04,37,13.50
2019,07,29,04,38,13.50
2019,07,29,04,39,13.50
2019,07,29,04,40,13.50
2019,07,29,04,41,13.50
2019,07,29,04,42,13.50
2019,07,29,04,43,13.50
2019,07,29,04,44,13.50
2019,07,29,04,45,13.50
2019,07,29,04,46,13.50
2019,07,29,04,47,13.50
2019,07,29,04,48,13.50
2019,07,29,04,49,13.40
2019,07,29,04,50,13.40
2019,07,29,04,51,13.40
2019,07,29,04,52,13.40
2019,07,29,04,53,13.40
2019,07,29,04,54,13.40
2019,07,29,04,55,13.40
2019,07,29,04,56,13.30
2019,07,29,04,57,13.30
2019,07,29,04,58,13.30
2019,07,29,04,59,13.30
2019,07,29,05,00,13.30
2019,07,29,05,01,13.30
2019,07,29,05,02,13.30
2019,07,29,05,03,13.30
2019,07,29,05,04,13.30
2019,07,29,05,05,13.30
2019,07,29,05,06,13.30
2019,07,29,05,07,13.30
2019,07,29,05,08,13.30
2019,07,29,05,09,13.30
2019,07,29,05,10,13.30
2019,07,29,05,11,13.30
2019,07,29,05,12,13.20
2019,07,29,05,13,13.20
2019,07,29,05,14,13.20
2019,07,29,05,15,13.20
2019,07,29,05,16,13.20
2019,07,29,05,17,13.30
2019,07,29,05,18,13.30
2019,07,29,05,19,13.30
2019,07,29,05,20,13.30
2019,07,29,05,21,13.30
2019,07,29,05,22,13.30
2019,07,29,05,23,13.30
2019,07,29,05,24,13.30
2019,07,29,05,25,13.30
2019,07,29,05,26,13.30
2019,07,29,05,27,13.20
2019,07,29,05,28,13.20
2019,07,29,05,29,13.20
2019,07,29,05,30,13.20
2019,07,29,05,31,13.20
2019,07,29,05,32,13.20
2019,07,29,05,33,13.20
2019,07,29,05,34,13.10
2019,07,29,05,35,13.10
2019,07,29,05,36,13.10
2019,07,29,05,37,13.10
2019,07,29,05,38,13.00
2019,07,29,05,39,13.00
2019,07,29,05,40,13.00
2019,07,29,05,41,12.90
2019,07,29,05,42,12.90
2019,07,29,05,43,12.90
2019,07,29,05,44,12.90
2019,07,29,05,45,12.80
2019,07,29,05,46,12.80
2019,07,29,05,47,12.80
2019,07,29,05,48,12.80
2019,07,29,05,49,12.70
2019,07,29,05,50,12.70
2019,07,29,05,51,12.70
2019,07,29,05,52,12.70
2019,07,29,05,53,12.70
2019,07,29,05,54,12.70
2019,07,29,05,55,12.70
2019,07,29,05,56,12.70
2019,07,29,05,57,12.70
2019,07,29,05,58,12.70
2019,07,29,05,59,12.80
2019,07,29,06,00,12.80
2019,07,29,06,01,12.80
2019,07,29,06,02,12.80
2019,07,29,06,03,12.80
2019,07,29,06,04,12.80
2019,07,29,06,05,12.80
2019,07,29,06,06,12.80
2019,07,29,06,07,12.80
2019,07,29,06,08,12.80
2019,07,29,06,09,12.80
2019,07,29,06,10,12.80
2019,07,29,06,11,12.80
2019,07,29,06,12,12.80
2019,07,29,06,13,12.90
2019,07,29,06,14,12.80
2019,07,29,06,15,12.80
2019,07,29,06,16,12.90
2019,07,29,06,17,12.90
2019,07,29,06,18,12.90
2019,07,29,06,19,12.90
2019,07,29,06,20,12.90
2019,07,29,06,21,12.90
2019,07,29,06,22,12.90
2019,07,29,06,23,12.90
2019,07,29,06,24,13.00
2019,07,29,06,25,13.00
2019,07,29,06,26,13.00
2019,07,29,06,27,13.10
2019,07,29,06,28,13.10
2019,07,29,06,29,13.10
2019,07,29,06,30,13.10
2019,07,29,06,31,13.20
2019,07,29,06,32,13.20
2019,07,29,06,33,13.20
2019,07,29,06,34,13.20
2019,07,29,06,35,13.20
2019,07,29,06,36,13.20
2019,07,29,06,37,13.30
2019,07,29,06,38,13.30
2019,07,29,06,39,13.30
2019,07,29,06,40,13.40
2019,07,29,06,41,13.40
2019,07,29,06,42,13.40
2019,07,29,06,43,13.50
2019,07,29,06,44,13.50
2019,07,29,06,45,13.60
2019,07,29,06,46,13.60
2019,07,29,06,47,13.70
2019,07,29,06,48,13.80
2019,07,29,06,49,13.80
2019,07,29,06,50,13.90
2019,07,29,06,51,13.90
2019,07,29,06,52,14.00
2019,07,29,06,53,14.00
2019,07,29,06,54,14.00
2019,07,29,06,55,14.10
2019,07,29,06,56,14.10
2019,07,29,06,57,14.10
2019,07,29,06,58,14.10
2019,07,29,06,59,14.20
2019,07,29,07,00,14.20
2019,07,29,07,01,14.30
2019,07,29,07,02,14.30
2019,07,29,07,03,14.40
2019,07,29,07,04,14.40
2019,07,29,07,05,14.50
2019,07,29,07,06,14.60
2019,07,29,07,07,14.70
2019,07,29,07,08,14.80
2019,07,29,07,09,15.00
2019,07,29,07,10,15.10
2019,07,29,07,11,15.30
2019,07,29,07,12,15.40
2019,07,29,07,13,15.50
2019,07,29,07,14,15.60
2019,07,29,07,15,15.70
2019,07,29,07,16,15.70
2019,07,29,07,17,15.70
2019,07,29,07,18,15.70
2019,07,29,07,19,15.70
2019,07,29,07,20,15.80
2019,07,29,07,21,15.80
2019,07,29,07,22,15.80
2019,07,29,07,23,15.90
2019,07,29,07,24,16.00
2019,07,29,07,25,16.10
2019,07,29,07,26,16.10
2019,07,29,07,27,16.20
2019,07,29,07,28,16.20
2019,07,29,07,29,16.20
2019,07,29,07,30,16.30
2019,07,29,07,31,16.30
2019,07,29,07,32,16.30
2019,07,29,07,33,16.30
2019,07,29,07,34,16.30
2019,07,29,07,35,16.30
2019,07,29,07,36,16.40
2019,07,29,07,37,16.40
2019,07,29,07,38,16.50
2019,07,29,07,39,16.60
2019,07,29,07,40,16.70
2019,07,29,07,41,16.80
2019,07,29,07,42,16.90
2019,07,29,07,43,17.00
2019,07,29,07,44,17.10
2019,07,29,07,45,17.10
2019,07,29,07,46,17.20
2019,07,29,07,47,17.30
2019,07,29,07,48,17.30
2019,07,29,07,49,17.40
2019,07,29,07,50,17.40
2019,07,29,07,51,17.50
2019,07,29,07,52,17.60
2019,07,29,07,53,17.60
2019,07,29,07,54,17.70
2019,07,29,07,55,17.80
2019,07,29,07,56,17.80
2019,07,29,07,57,17.90
2019,07,29,07,58,17.90
2019,07,29,07,59,18.00
2019,07,29,08,00,18.10
2019,07,29,08,01,18.20
2019,07,29,08,02,18.20
2019,07,29,08,03,18.30
2019,07,29,08,04,18.40
2019,07,29,08,05,18.50
2019,07,29,08,06,18.60
2019,07,29,08,07,18.70
2019,07,29,08,08,18.70
2019,07,29,08,09,18.70
2019,07,29,08,10,18.70
2019,07,29,08,11,18.70
2019,07,29,08,12,18.80
2019,07,29,08,13,18.80
2019,07,29,08,14,18.90
2019,07,29,08,15,19.00
2019,07,29,08,16,19.00
2019,07,29,08,17,19.10
2019,07,29,08,18,19.10
2019,07,29,08,19,19.20
2019,07,29,08,20,19.20
2019,07,29,08,21,19.30
2019,07,29,08,22,19.40
2019,07,29,08,23,19.40
2019,07,29,08,24,19.50
2019,07,29,08,25,19.50
2019,07,29,08,26,19.60
2019,07,29,08,27,19.60
2019,07,29,08,28,19.60
2019,07,29,08,29,19.50
2019,07,29,08,30,19.50
2019,07,29,08,31,19.40
2019,07,29,08,32,19.40
2019,07,29,08,33,19.30
2019,07,29,08,34,19.30
2019,07,29,08,35,19.20
2019,07,29,08,36,19.20
2019,07,29,08,37,19.20
2019,07,29,08,38,19.20
2019,07,29,08,39,19.30
2019,07,29,08,40,19.30
2019,07,29,08,41,19.40
2019,07,29,08,42,19.50
2019,07,29,08,43,19.50
2019,07,29,08,44,19.60
2019,07,29,08,45,19.60
2019,07,29,08,46,19.50
2019,07,29,08,47,19.50
2019,07,29,08,48,19.60
2019,07,29,08,49,19.60
2019,07,29,08,50,19.60
2019,07,29,08,51,19.70
2019,07,29,08,52,19.70
2019,07,29,08,53,19.80
2019,07,29,08,54,19.80
2019,07,29,08,55,19.90
2019,07,29,08,56,19.90
2019,07,29,08,57,19.90
2019,07,29,08,58,19.90
2019,07,29,08,59,19.90
2019,07,29,09,00,19.90
2019,07,29,09,01,20.00
2019,07,29,09,02,20.00
2019,07,29,09,03,20.10
2019,07,29,09,04,20.10
2019,07,29,09,05,20.10
2019,07,29,09,06,20.10
2019,07,29,09,07,20.10
2019,07,29,09,08,20.00
2019,07,29,09,09,20.00
2019,07,29,09,10,20.00
2019,07,29,09,11,20.00
2019,07,29,09,12,20.00
2019,07,29,09,13,20.00
2019,07,29,09,14,20.00
2019,07,29,09,15,19.90
2019,07,29,09,16,19.90
2019,07,29,09,17,19.90
2019,07,29,09,18,19.90
2019,07,29,09,19,19.90
2019,07,29,09,20,20.00
2019,07,29,09,21,20.00
2019,07,29,09,22,19.90
2019,07,29,09,23,19.90
2019,07,29,09,24,19.80
2019,07,29,09,25,19.80
2019,07,29,09,26,19.80
2019,07,29,09,27,19.70
2019,07,29,09,28,19.70
2019,07,29,09,29,19.70
2019,07,29,09,30,19.60
2019,07,29,09,31,19.60
2019,07,29,09,32,19.50
2019,07,29,09,33,19.40
2019,07,29,09,34,19.30
2019,07,29,09,35,19.30
2019,07,29,09,36,19.30
2019,07,29,09,37,19.20
2019,07,29,09,38,19.20
2019,07,29,09,39,19.20
2019,07,29,09,40,19.20
2019,07,29,09,41,19.30
2019,07,29,09,42,19.30
2019,07,29,09,43,19.30
2019,07,29,09,44,19.30
2019,07,29,09,45,19.30
2019,07,29,09,46,19.30
2019,07,29,09,47,19.30
2019,07,29,09,48,19.30
2019,07,29,09,49,19.30
2019,07,29,09,50,19.40
2019,07,29,09,51,19.50
2019,07,29,09,52,19.60
2019,07,29,09,53,19.60
2019,07,29,09,54,19.60
2019,07,29,09,55,19.50
2019,07,29,09,56,19.40
2019,07,29,09,57,19.40
2019,07,29,09,58,19.40
2019,07,29,09,59,19.40
2019,07,29,10,00,19.40
2019,07,29,10,01,19.40
2019,07,29,10,02,19.30
2019,07,29,10,03,19.30
2019,07,29,10,04,19.30
2019,07,29,10,05,19.30
2019,07,29,10,06,19.20
2019,07,29,10,07,19.30
2019,07,29,10,08,19.30
2019,07,29,10,09,19.40
2019,07,29,10,10,19.50
2019,07,29,10,11,19.60
2019,07,29,10,12,19.60
2019,07,29,10,13,19.60
2019,07,29,10,14,19.60
2019,07,29,10,15,19.50
2019,07,29,10,16,19.50
2019,07,29,10,17,19.40
2019,07,29,10,18,19.40
2019,07,29,10,19,19.40
2019,07,29,10,20,19.40
2019,07,29,10,21,19.60
2019,07,29,10,22,19.70
2019,07,29,10,23,19.70
2019,07,29,10,24,19.70
2019,07,29,10,25,19.70
2019,07,29,10,26,19.70
2019,07,29,10,27,19.70
2019,07,29,10,28,19.80
2019,07,29,10,29,19.90
2019,07,29,10,30,20.00
2019,07,29,10,31,20.10
2019,07,29,10,32,20.00
2019,07,29,10,33,19.90
2019,07,29,10,34,19.80
2019,07,29,10,35,19.70
2019,07,29,10,36,19.70
2019,07,29,10,37,19.80
2019,07,29,10,38,19.80
2019,07,29,10,39,19.80
2019,07,29,10,40,19.80
2019,07,29,10,41,19.90
2019,07,29,10,42,19.80
2019,07,29,10,43,19.70
2019,07,29,10,44,19.60
2019,07,29,10,45,19.60
2019,07,29,10,46,19.60
2019,07,29,10,47,19.70
2019,07,29,10,48,19.70
2019,07,29,10,49,19.60
2019,07,29,10,50,19.60
2019,07,29,10,51,19.60
2019,07,29,10,52,19.60
2019,07,29,10,53,19.60
2019,07,29,10,54,19.70
2019,07,29,10,55,19.80
2019,07,29,10,56,19.80
2019,07,29,10,57,19.80
2019,07,29,10,58,19.80
2019,07,29,10,59,19.80
2019,07,29,11,00,19.90
2019,07,29,11,01,20.00
2019,07,29,11,02,20.10
2019,07,29,11,03,20.10
2019,07,29,11,04,20.30
2019,07,29,11,05,20.30
2019,07,29,11,06,20.30
2019,07,29,11,07,20.30
2019,07,29,11,08,20.20
2019,07,29,11,09,20.10
2019,07,29,11,10,20.10
2019,07,29,11,11,20.10
2019,07,29,11,12,20.10
2019,07,29,11,13,20.10
2019,07,29,11,14,20.20
2019,07,29,11,15,20.10
2019,07,29,11,16,20.00
2019,07,29,11,17,19.90
2019,07,29,11,18,19.80
2019,07,29,11,19,19.90
2019,07,29,11,20,19.90
2019,07,29,11,21,19.90
2019,07,29,11,22,20.10
2019,07,29,11,23,20.20
2019,07,29,11,24,20.30
2019,07,29,11,25,20.30
2019,07,29,11,26,20.20
2019,07,29,11,27,20.00
2019,07,29,11,28,19.90
2019,07,29,11,29,19.80
2019,07,29,11,30,19.70
2019,07,29,11,31,19.70
2019,07,29,11,32,19.60
2019,07,29,11,33,19.60
2019,07,29,11,34,19.70
2019,07,29,11,35,19.80
2019,07,29,11,36,20.00
2019,07,29,11,37,20.10
2019,07,29,11,38,20.10
2019,07,29,11,39,20.10
2019,07,29,11,40,20.10
2019,07,29,11,41,20.00
2019,07,29,11,42,19.90
2019,07,29,11,43,19.80
2019,07,29,11,44,19.80
2019,07,29,11,45,19.70
2019,07,29,11,46,19.80
2019,07,29,11,47,19.80
2019,07,29,11,48,20.00
2019,07,29,11,49,20.20
2019,07,29,11,50,20.30
2019,07,29,11,51,20.30
2019,07,29,11,52,20.20
2019,07,29,11,53,20.10
2019,07,29,11,54,20.00
2019,07,29,11,55,19.90
2019,07,29,11,56,19.90
2019,07,29,11,57,19.80
2019,07,29,11,58,19.70
2019,07,29,11,59,19.70
2019,07,29,12,00,19.70
2019,07,29,12,01,19.90
2019,07,29,12,02,20.00
2019,07,29,12,03,20.10
2019,07,29,12,04,20.20
2019,07,29,12,05,20.30
2019,07,29,12,06,20.20
2019,07,29,12,07,20.20
2019,07,29,12,08,20.20
2019,07,29,12,09,20.10
2019,07,29,12,10,20.00
2019,07,29,12,11,20.00
2019,07,29,12,12,19.90
2019,07,29,12,13,19.90
2019,07,29,12,14,19.90
2019,07,29,12,15,19.90
2019,07,29,12,16,19.90
2019,07,29,12,17,20.00
2019,07,29,12,18,20.00
2019,07,29,12,19,19.90
2019,07,29,12,20,19.90
2019,07,29,12,21,19.90
2019,07,29,12,22,19.90
2019,07,29,12,23,19.90
2019,07,29,12,24,19.90
2019,07,29,12,25,20.10
2019,07,29,12,26,20.20
2019,07,29,12,27,20.40
2019,07,29,12,28,20.50
2019,07,29,12,29,20.60
2019,07,29,12,30,20.60
2019,07,29,12,31,20.50
2019,07,29,12,32,20.50
2019,07,29,12,33,20.60
2019,07,29,12,34,20.80
2019,07,29,12,35,21.00
2019,07,29,12,36,21.10
2019,07,29,12,37,21.00
2019,07,29,12,38,20.80
2019,07,29,12,39,20.60
2019,07,29,12,40,20.60
2019,07,29,12,41,20.50
2019,07,29,12,42,20.50
2019,07,29,12,43,20.50
2019,07,29,12,44,20.60
2019,07,29,12,45,20.70
2019,07,29,12,46,20.80
2019,07,29,12,47,21.00
2019,07,29,12,48,21.10
2019,07,29,12,49,21.20
2019,07,29,12,50,21.30
2019,07,29,12,51,21.20
2019,07,29,12,52,21.20
2019,07,29,12,53,21.30
2019,07,29,12,54,21.30
2019,07,29,12,55,21.30
2019,07,29,12,56,21.30
2019,07,29,12,57,21.30
2019,07,29,12,58,21.30
2019,07,29,12,59,21.30
2019,07,29,13,00,21.20
2019,07,29,13,01,21.10
2019,07,29,13,02,21.00
2019,07,29,13,03,21.00
2019,07,29,13,04,21.00
2019,07,29,13,05,21.10
2019,07,29,13,06,21.20
2019,07,29,13,07,21.10
2019,07,29,13,08,21.00
2019,07,29,13,09,20.90
2019,07,29,13,10,20.90
2019,07,29,13,11,20.90
2019,07,29,13,12,21.00
2019,07,29,13,13,21.10
2019,07,29,13,14,21.10
2019,07,29,13,15,21.00
2019,07,29,13,16,20.90
2019,07,29,13,17,20.80
2019,07,29,13,18,20.90
2019,07,29,13,19,20.90
2019,07,29,13,20,20.90
2019,07,29,13,21,21.00
2019,07,29,13,22,21.10
2019,07,29,13,23,21.20
2019,07,29,13,24,21.20
2019,07,29,13,25,21.10
2019,07,29,13,26,21.00
2019,07,29,13,27,20.90
2019,07,29,13,28,20.80
2019,07,29,13,29,20.80
2019,07,29,13,30,20.70
2019,07,29,13,31,20.70
2019,07,29,13,32,20.60
2019,07,29,13,33,20.60
2019,07,29,13,34,20.60
2019,07,29,13,35,20.60
2019,07,29,13,36,20.60
2019,07,29,13,37,20.60
2019,07,29,13,38,20.70
2019,07,29,13,39,20.70
2019,07,29,13,40,20.70
2019,07,29,13,41,20.70
2019,07,29,13,42,20.70
2019,07,29,13,43,20.70
2019,07,29,13,44,20.80
2019,07,29,13,45,20.80
2019,07,29,13,46,21.00
2019,07,29,13,47,21.10
2019,07,29,13,48,21.10
2019,07,29,13,49,21.30
2019,07,29,13,50,21.20
2019,07,29,13,51,21.10
2019,07,29,13,52,21.00
2019,07,29,13,53,20.90
2019,07,29,13,54,21.00
2019,07,29,13,55,21.10
2019,07,29,13,56,21.20
2019,07,29,13,57,21.30
2019,07,29,13,58,21.30
2019,07,29,13,59,21.40
2019,07,29,14,00,21.30
2019,07,29,14,01,21.20
2019,07,29,14,02,21.10
2019,07,29,14,03,21.10
2019,07,29,14,04,21.20
2019,07,29,14,05,21.30
2019,07,29,14,06,21.40
2019,07,29,14,07,21.50
2019,07,29,14,08,21.60
2019,07,29,14,09,21.80
2019,07,29,14,10,21.80
2019,07,29,14,11,21.70
2019,07,29,14,12,21.70
2019,07,29,14,13,21.70
2019,07,29,14,14,21.80
2019,07,29,14,15,21.70
2019,07,29,14,16,21.60
2019,07,29,14,17,21.50
2019,07,29,14,18,21.50
2019,07,29,14,19,21.60
2019,07,29,14,20,21.70
2019,07,29,14,21,21.70
2019,07,29,14,22,21.80
2019,07,29,14,23,22.00
2019,07,29,14,24,21.90
2019,07,29,14,25,21.90
2019,07,29,14,26,21.80
2019,07,29,14,27,21.80
2019,07,29,14,28,21.90
2019,07,29,14,29,21.80
2019,07,29,14,30,21.80
2019,07,29,14,31,21.90
2019,07,29,14,32,21.90
2019,07,29,14,33,21.90
2019,07,29,14,34,21.90
2019,07,29,14,35,21.80
2019,07,29,14,36,21.80
2019,07,29,14,37,21.90
2019,07,29,14,38,21.90
2019,07,29,14,39,22.10
2019,07,29,14,40,22.20
2019,07,29,14,41,22.30
2019,07,29,14,42,22.30
2019,07,29,14,43,22.10
2019,07,29,14,44,22.00
2019,07,29,14,45,22.00
2019,07,29,14,46,22.10
2019,07,29,14,47,22.20
2019,07,29,14,48,22.30
2019,07,29,14,49,22.40
2019,07,29,14,50,22.40
2019,07,29,14,51,22.30
2019,07,29,14,52,22.20
2019,07,29,14,53,22.20
2019,07,29,14,54,22.10
2019,07,29,14,55,22.00
2019,07,29,14,56,21.80
2019,07,29,14,57,21.80
2019,07,29,14,58,21.70
2019,07,29,14,59,21.70
2019,07,29,15,00,21.90
2019,07,29,15,01,22.00
2019,07,29,15,02,22.20
2019,07,29,15,03,22.20
2019,07,29,15,04,22.20
2019,07,29,15,05,22.20
2019,07,29,15,06,22.20
2019,07,29,15,07,22.30
2019,07,29,15,08,22.30
2019,07,29,15,09,22.30
2019,07,29,15,10,22.50
2019,07,29,15,11,22.70
2019,07,29,15,12,22.80
2019,07,29,15,13,22.90
2019,07,29,15,14,23.10
2019,07,29,15,15,23.20
2019,07,29,15,16,23.30
2019,07,29,15,17,23.50
2019,07,29,15,18,23.50
2019,07,29,15,19,23.30
2019,07,29,15,20,23.20
2019,07,29,15,21,23.10
2019,07,29,15,22,23.10
2019,07,29,15,23,23.10
2019,07,29,15,24,23.00
2019,07,29,15,25,23.00
2019,07,29,15,26,22.90
2019,07,29,15,27,22.90
2019,07,29,15,28,22.90
2019,07,29,15,29,22.90
2019,07,29,15,30,23.00
2019,07,29,15,31,23.00
2019,07,29,15,32,22.90
2019,07,29,15,33,22.90
2019,07,29,15,34,22.90
2019,07,29,15,35,22.70
2019,07,29,15,36,22.70
2019,07,29,15,37,22.70
2019,07,29,15,38,22.70
2019,07,29,15,39,22.60
2019,07,29,15,40,22.60
2019,07,29,15,41,22.70
2019,07,29,15,42,22.70
2019,07,29,15,43,22.80
2019,07,29,15,44,22.80
2019,07,29,15,45,22.80
2019,07,29,15,46,22.80
2019,07,29,15,47,23.00
2019,07,29,15,48,23.10
2019,07,29,15,49,23.20
2019,07,29,15,50,23.10
2019,07,29,15,51,23.10
2019,07,29,15,52,23.00
2019,07,29,15,53,22.90
2019,07,29,15,54,22.90
2019,07,29,15,55,22.90
2019,07,29,15,56,22.90
2019,07,29,15,57,22.90
2019,07,29,15,58,22.90
2019,07,29,15,59,22.80
2019,07,29,16,00,22.70
2019,07,29,16,01,22.60
2019,07,29,16,02,22.50
2019,07,29,16,03,22.40
2019,07,29,16,04,22.50
2019,07,29,16,05,22.60
2019,07,29,16,06,22.60
2019,07,29,16,07,22.60
2019,07,29,16,08,22.70
2019,07,29,16,09,22.80
2019,07,29,16,10,22.80
2019,07,29,16,11,22.80
2019,07,29,16,12,22.80
2019,07,29,16,13,23.00
2019,07,29,16,14,23.10
2019,07,29,16,15,23.20
2019,07,29,16,16,23.30
2019,07,29,16,17,23.40
2019,07,29,16,18,23.60
2019,07,29,16,19,23.60
2019,07,29,16,20,23.60
2019,07,29,16,21,23.50
2019,07,29,16,22,23.50
2019,07,29,16,23,23.50
2019,07,29,16,24,23.50
2019,07,29,16,25,23.50
2019,07,29,16,26,23.50
2019,07,29,16,27,23.50
2019,07,29,16,28,23.50
2019,07,29,16,29,23.50
2019,07,29,16,30,23.60
2019,07,29,16,31,23.80
2019,07,29,16,32,23.80
2019,07,29,16,33,23.80
2019,07,29,16,34,23.70
2019,07,29,16,35,23.70
2019,07,29,16,36,23.80
2019,07,29,16,37,23.80
2019,07,29,16,38,23.80
2019,07,29,16,39,23.80
2019,07,29,16,40,23.80
2019,07,29,16,41,23.80
2019,07,29,16,42,23.90
2019,07,29,16,43,24.00
2019,07,29,16,44,24.10
2019,07,29,16,45,24.20
2019,07,29,16,46,24.20
2019,07,29,16,47,24.20
2019,07,29,16,48,24.30
2019,07,29,16,49,24.40
2019,07,29,16,50,24.50
2019,07,29,16,51,24.60
2019,07,29,16,52,24.60
2019,07,29,16,53,24.60
2019,07,29,16,54,24.70
2019,07,29,16,55,24.80
2019,07,29,16,56,24.80
2019,07,29,16,57,24.80
2019,07,29,16,58,24.80
2019,07,29,16,59,24.90
2019,07,29,17,00,25.10
2019,07,29,17,01,25.30
2019,07,29,17,02,25.30
2019,07,29,17,03,25.30
2019,07,29,17,04,25.30
2019,07,29,17,05,25.30
2019,07,29,17,06,25.20
2019,07,29,17,07,25.20
2019,07,29,17,08,25.20
2019,07,29,17,09,25.20
2019,07,29,17,10,25.20
2019,07,29,17,11,25.30
2019,07,29,17,12,25.30
2019,07,29,17,13,25.30
2019,07,29,17,14,25.30
2019,07,29,17,15,25.30
2019,07,29,17,16,25.30
2019,07,29,17,17,25.30
2019,07,29,17,18,25.20
2019,07,29,17,19,25.10